SCP
0 0 0 0 0 0 0 0 0 0 0 0 0 0 0 0 0 0 0 0 0 0 0 0 0 0 0 0 0 0 0 0 0 0 0 0 0 0
0 0 0 0 0 0 0 0 0 0 0 0 0 0 0 0 0 0 0 0 0 0 0 0 0 0 0 0 0 0 0 0 0 0 0 0 0 0
0 0 0 0 0 0 0 0 0 0 0 0 0 0 0 0 0 0 0 0 0 0 0 0 0 0 0 0 0 0 0 0 0 0 0 0 0 0
0 0 0 0 0 0 0 0 0 0 0 0 0 0 0 0 0 0 0 0 0 0 0 0 0 0 0 0 0 0 0 0 0 0 0 0 0 0
0 0 0 0 0 0 0 0 0 0 0 0 0 0 0 0 0 0 0 0 0 0 0 0 0 0 0 0 0 0 0 0 0 0 0 0 0 0
0 0 0 0 0 0 0 0 0 0 0 0 0 0 0 0 0 0 0 0 0 0 0 0 0 0 0 0 0 0 0 0 0 0 0 0 0 0
0 0 0 0 0 0 0 0 0 0 0 0 0 0 0 0 0 0 0 0 0 0 0 0 0 0 0 0 0 0 0 0 0 0 0 0 0 0
0 0 0 0 0 0 0 0 0 0 0 0 0 0 0 0 0 0 0 0 0 0 0 0 0 0 0 0 0 0 0 -0 0 0 0 0 0 0
0 0 0 0 0 0 0 0 0 0 0 0 0 0 0 0 0 0 0 0 0 0 0 0 0 0 0 0 0 0 -0 0 0 0 0 0 0 0
0 0 0 0 0 0 0 0 0 0 0 0 0 0 0 0 0 0 0 0 0 0 0 0 0 0 0 0 -0 -0 -0 -0 0 0 0 0 0 0
0 0 0 0 0 0 0 0 0 0 0 0 0 0 0 0 0 0 0 0 0 0 0 0 0 0 0 0 0 -0 0 0 0 0 0 0 0 0
0 0 0 0 0 0 0 0 0 0 0 0 0 0 0 0 0 0 0 0 0 0 0 0 0 0 0 0 0 0 0 0 0 0 0 0 0 0
0 0 0 0 0 0 0 0 0 0 0 0 0 0 0 0 0 0 0 0 0 0 0 0 0 0 0 0 0 0 0 0 0 0 0 0 0 0
0 0 0 0 0 0 0 0 0 0 0 0 0 0 0 0 0 0 0 0 0 0 0 0 0 0 0 0 0 0 0 0 0 0 0 0 0 0
0 0 0 0 0 0 0 0 0 0 0 0 0 0 0 0 0 0 0 0 0 0 0 0 0 0 0 0 0 0 0 0 0 0 0 0 0 0
0 0 0 0 0 0 0 0 0 0 0 0 0 0 0 0 0 0 0 0 0 0 0 0 0 0 0 0 0 0 0 0 0 0 0 0 0 0
0 0 0 0 0 0 0 0 0 0 0 0 0 0 0 0 0 0 0 0 0 0 0 0 0 0 0 0 0 0 0 0 0 0 0 0 0 0
0 0 0 0 0 0 0 0 0 0 0 0 0 0 0 0 0 0 0 0 0 0 0 0 0 0 0 0 0 0 0 0 0 0 0 0 0 0
0 0 0 0 0 0 0 0 0 0 0 0 0 0 0 0 0 0 0 0 0 0 0 0 0 0 0 0 0 -0 0 0 0 0 0 0 0 0
0 0 0 0 0 0 0 0 0 0 0 0 0 0 0 0 0 0 0 0 0 0 0 0 0 0 0 0 0 0 0 0 0 0 0 0 0 0
0 0 0 0 0 0 0 0 0 0 0 0 0 0 0 0 0 0 0 0 0 0 0 0 0 0 0 0 0 0 0 0 0 0 0 0 0 0
0 0 0 0 0 0 0 0 0 0 0 0 0 0 0 0 0 0 0 0 0 0 0 0 0 0 0 0 0 0 0 0 0 0 0 0 0 0
0 0 0 0 0 0 0 0 0 0 0 0 0 0 0 0 0 0 0 0 0 0 0 0 0 0 0 0 0 0 0 0 0 0 0 0 0 0
Wind_Speed_500mb
35 36 36 30 24 25 22 21 19 12 13 18 21 27 32 39 49 54 58 60 62 62 63 64 60 51 49 46 43 44 43 43 44 46 47 49 51 55
45 41 32 29 25 21 17 16 14 13 12 17 21 28 35 43 51 55 57 60 63 64 63 62 61 51 46 41 42 44 44 43 44 46 48 49 53 57
41 37 34 28 23 18 14 9 10 13 14 18 22 29 36 45 49 53 58 61 63 61 62 62 58 56 43 41 46 46 45 44 45 47 47 50 54 59
43 34 29 25 19 13 7 8 10 14 17 21 25 30 37 45 51 59 60 60 60 63 63 65 62 52 40 44 52 50 47 46 47 48 49 53 59 62
36 31 24 17 12 7 5 12 16 20 22 26 31 35 43 49 57 61 67 73 72 64 65 53 53 50 58 59 57 50 47 47 51 52 52 60 63 66
31 25 19 14 5 6 11 14 19 23 25 28 33 39 45 53 61 69 74 76 81 79 65 51 59 59 62 59 53 45 43 49 55 52 59 63 66 69
27 20 12 3 6 10 14 18 21 24 27 32 38 47 53 56 60 69 77 82 85 72 76 82 80 74 68 61 50 43 47 52 52 56 59 63 68 73
17 11 4 5 8 16 17 22 26 30 34 39 44 48 50 55 61 68 76 82 81 76 87 91 82 79 68 63 65 62 52 44 50 52 57 65 74 75
11 6 3 6 11 13 18 20 22 27 33 40 42 44 52 55 64 71 74 74 76 79 85 100 87 82 78 74 71 59 38 43 43 50 64 71 70 72
8 1 5 10 12 16 18 22 28 31 35 38 41 44 48 54 60 66 71 76 79 75 74 96 89 94 94 88 68 53 48 34 46 69 65 67 70 71
5 4 8 11 18 26 24 24 29 36 35 35 38 42 48 52 55 65 66 73 85 85 80 79 93 103 106 85 69 55 46 58 78 79 70 67 68 67
6 5 7 12 19 23 25 29 33 39 42 44 45 47 49 54 56 59 64 68 68 85 75 84 91 86 101 89 77 96 93 89 94 90 82 70 56 68
3 8 13 19 21 23 28 32 35 45 45 49 55 58 59 60 61 61 62 65 68 75 71 71 90 86 77 95 106 108 98 107 101 96 85 72 71 59
5 9 13 17 19 23 28 32 37 43 51 57 63 68 72 74 75 75 71 69 67 73 72 68 82 79 83 98 110 114 110 109 101 94 85 85 75 71
7 9 13 17 22 26 33 38 44 52 58 65 73 78 80 81 78 78 75 73 74 70 65 66 72 77 78 88 104 113 110 116 88 92 86 86 85 77
9 14 19 23 29 33 36 42 48 54 62 70 77 80 81 82 79 76 79 76 80 79 66 57 64 69 81 85 89 107 99 99 98 87 86 89 84 73
11 17 22 26 30 34 38 43 48 54 63 71 76 81 83 83 81 77 75 74 75 81 82 75 67 65 68 74 84 82 83 87 83 87 89 97 92 81
18 22 28 32 38 45 52 56 57 61 66 72 77 79 82 81 80 77 74 74 79 80 82 80 78 79 82 78 61 64 78 84 91 88 85 90 96 89
23 28 34 40 45 50 56 62 68 67 69 72 75 76 78 78 76 77 76 78 81 82 82 76 71 69 80 88 85 62 68 86 87 85 77 80 92 99
29 35 40 46 50 56 61 67 69 71 72 75 75 75 74 75 76 75 77 79 81 83 83 74 67 65 68 77 89 89 68 79 76 82 79 85 85 97
32 39 46 51 56 61 64 68 72 75 76 78 78 76 74 74 76 76 77 77 78 77 81 78 70 67 70 79 89 98 86 70 74 75 79 87 94 104
40 46 50 56 60 64 68 72 76 78 80 81 79 77 75 74 75 76 75 75 73 75 79 80 75 75 76 80 92 96 97 88 76 72 70 72 74 67
48 53 57 60 62 65 69 74 78 82 82 83 82 80 78 77 75 75 73 70 70 75 77 85 84 82 81 85 89 95 95 95 94 93 82 77 79 63
Wind_Direction_500mb
214 172 156 153 183 203 203 201 215 223 246 261 268 286 291 298 306 308 308 311 315 318 317 316 316 315 314 310 306 307 308 307 307 308 311 313 314 315
156 148 158 174 174 175 177 194 220 246 250 265 277 285 296 300 300 303 308 314 318 319 319 320 318 312 307 303 305 305 303 303 304 306 309 310 311 313
150 165 164 162 168 171 176 206 252 270 273 277 289 294 295 296 301 306 313 318 322 325 324 322 319 312 301 297 305 302 300 299 300 302 305 307 309 311
160 160 165 162 169 172 202 257 293 305 304 300 297 300 301 306 311 316 319 322 327 330 328 325 318 311 299 295 303 298 296 294 296 299 303 305 306 308
159 159 158 160 176 204 293 326 317 308 313 316 311 313 317 317 318 322 327 328 329 331 325 326 317 313 306 302 301 298 293 293 299 300 301 303 304 305
154 152 162 175 205 331 319 315 321 317 314 317 321 320 320 326 328 327 324 328 330 334 331 333 327 321 313 312 305 299 295 297 300 298 300 302 303 304
156 161 163 161 298 292 325 323 312 314 328 329 326 331 330 327 327 329 327 329 330 335 333 331 330 328 322 317 311 304 302 303 298 299 302 302 302 303
151 153 170 262 304 328 321 325 333 333 337 335 331 326 327 329 327 325 328 330 328 334 326 324 329 328 324 321 319 318 319 301 296 303 301 302 303 304
153 176 257 318 318 318 326 334 333 331 333 328 325 330 329 327 327 325 325 322 320 328 326 319 329 324 324 324 323 322 323 305 302 301 304 305 305 304
159 211 294 299 314 331 333 340 334 334 333 333 335 331 326 325 321 319 322 321 319 324 326 318 326 323 324 325 328 328 329 301 303 311 309 309 307 303
196 257 287 325 334 334 338 332 332 332 336 336 332 329 325 325 324 320 324 322 322 326 328 321 321 322 323 325 329 330 318 310 322 322 315 310 308 305
245 277 338 328 333 325 331 332 330 333 336 336 335 335 330 330 328 324 323 321 321 319 325 319 316 325 324 322 320 317 318 324 327 326 326 322 317 309
327 340 335 329 321 324 327 336 335 328 331 332 334 334 332 330 326 324 323 318 316 310 320 313 310 314 310 311 311 314 319 322 324 325 327 324 322 312
347 327 319 311 320 335 335 329 326 328 331 332 333 334 332 331 329 325 320 315 311 308 313 309 303 308 308 306 306 312 316 317 323 322 322 320 319 316
309 304 316 330 331 336 337 332 332 333 333 333 334 333 331 327 323 320 316 314 309 308 308 305 303 305 302 301 303 306 313 316 317 318 321 319 321 321
319 329 326 328 336 338 334 332 332 333 334 333 331 328 325 323 323 321 319 319 315 318 320 317 309 304 302 300 302 302 310 306 314 318 320 317 319 322
321 325 322 327 329 329 331 333 331 332 333 331 328 327 325 323 323 322 321 321 319 322 324 329 325 316 307 303 302 306 311 308 315 320 322 319 319 323
321 320 324 328 332 332 333 334 334 333 331 329 328 327 324 323 321 322 323 322 321 323 324 328 329 325 322 321 320 317 316 317 320 316 316 315 318 325
315 325 326 329 331 333 332 332 332 331 328 328 327 327 324 321 322 323 324 323 322 323 324 328 331 330 324 318 323 330 317 320 320 320 322 319 318 325
325 322 324 327 330 331 331 329 328 327 327 328 327 326 324 322 322 323 323 323 323 323 322 328 332 330 324 318 316 323 335 327 324 319 323 319 321 325
319 321 324 327 329 330 327 326 327 327 326 326 326 325 325 322 322 323 322 322 321 322 321 326 331 327 323 318 315 321 324 328 325 321 320 312 315 323
320 324 327 327 327 326 326 325 326 326 325 325 325 324 323 321 321 321 321 321 321 320 320 323 327 325 324 320 318 320 324 328 329 322 318 313 301 289
320 322 324 325 325 324 324 325 325 324 324 323 323 323 321 319 320 320 320 321 321 320 323 322 324 323 323 322 321 323 324 327 330 328 327 332 332 306
Wind_Speed_850mb
35 36 36 30 24 25 22 21 19 12 13 18 21 27 32 39 49 54 58 60 62 62 63 64 60 51 49 46 43 44 43 43 44 46 47 49 51 55
45 41 32 29 25 21 17 16 14 13 12 17 21 28 35 43 51 55 57 60 63 64 63 62 61 51 46 41 42 44 44 43 44 46 48 49 53 57
41 37 34 28 23 18 14 9 10 13 14 18 22 29 36 45 49 53 58 61 63 61 62 62 58 56 43 41 46 46 45 44 45 47 47 50 54 59
43 34 29 25 19 13 7 8 10 14 17 21 25 30 37 45 51 59 60 60 60 63 63 65 62 52 40 44 52 50 47 46 47 48 49 53 59 62
36 31 24 17 12 7 5 12 16 20 22 26 31 35 43 49 57 61 67 73 72 64 65 53 53 50 58 59 57 50 47 47 51 52 52 60 63 66
31 25 19 14 5 6 11 14 19 23 25 28 33 39 45 53 61 69 74 76 81 79 65 51 59 59 62 59 53 45 43 49 55 52 59 63 66 69
27 20 12 3 6 10 14 18 21 24 27 32 38 47 53 56 60 69 77 82 85 72 76 82 80 74 68 61 50 43 47 52 52 56 59 63 68 73
17 11 4 5 8 16 17 22 26 30 34 39 44 48 50 55 61 68 76 82 81 76 87 91 82 79 68 63 65 62 52 44 50 52 57 65 74 75
11 6 3 6 11 13 18 20 22 27 33 40 42 44 52 55 64 71 74 74 76 79 85 100 87 82 78 74 71 59 38 43 43 50 64 71 70 72
8 1 5 10 12 16 18 22 28 31 35 38 41 44 48 54 60 66 71 76 79 75 74 96 89 94 94 88 68 53 48 34 46 69 65 67 70 71
5 4 8 11 18 26 24 24 29 36 35 35 38 42 48 52 55 65 66 73 85 85 80 79 93 103 106 85 69 55 46 58 78 79 70 67 68 67
6 5 7 12 19 23 25 29 33 39 42 44 45 47 49 54 56 59 64 68 68 85 75 84 91 86 101 89 77 96 93 89 94 90 82 70 56 68
3 8 13 19 21 23 28 32 35 45 45 49 55 58 59 60 61 61 62 65 68 75 71 71 90 86 77 95 106 108 98 107 101 96 85 72 71 59
5 9 13 17 19 23 28 32 37 43 51 57 63 68 72 74 75 75 71 69 67 73 72 68 82 79 83 98 110 114 110 109 101 94 85 85 75 71
7 9 13 17 22 26 33 38 44 52 58 65 73 78 80 81 78 78 75 73 74 70 65 66 72 77 78 88 104 113 110 116 88 92 86 86 85 77
9 14 19 23 29 33 36 42 48 54 62 70 77 80 81 82 79 76 79 76 80 79 66 57 64 69 81 85 89 107 99 99 98 87 86 89 84 73
11 17 22 26 30 34 38 43 48 54 63 71 76 81 83 83 81 77 75 74 75 81 82 75 67 65 68 74 84 82 83 87 83 87 89 97 92 81
18 22 28 32 38 45 52 56 57 61 66 72 77 79 82 81 80 77 74 74 79 80 82 80 78 79 82 78 61 64 78 84 91 88 85 90 96 89
23 28 34 40 45 50 56 62 68 67 69 72 75 76 78 78 76 77 76 78 81 82 82 76 71 69 80 88 85 62 68 86 87 85 77 80 92 99
29 35 40 46 50 56 61 67 69 71 72 75 75 75 74 75 76 75 77 79 81 83 83 74 67 65 68 77 89 89 68 79 76 82 79 85 85 97
32 39 46 51 56 61 64 68 72 75 76 78 78 76 74 74 76 76 77 77 78 77 81 78 70 67 70 79 89 98 86 70 74 75 79 87 94 104
40 46 50 56 60 64 68 72 76 78 80 81 79 77 75 74 75 76 75 75 73 75 79 80 75 75 76 80 92 96 97 88 76 72 70 72 74 67
48 53 57 60 62 65 69 74 78 82 82 83 82 80 78 77 75 75 73 70 70 75 77 85 84 82 81 85 89 95 95 95 94 93 82 77 79 63
Wind_Direction_850mb
214 172 156 153 183 203 203 201 215 223 246 261 268 286 291 298 306 308 308 311 315 318 317 316 316 315 314 310 306 307 308 307 307 308 311 313 314 315
156 148 158 174 174 175 177 194 220 246 250 265 277 285 296 300 300 303 308 314 318 319 319 320 318 312 307 303 305 305 303 303 304 306 309 310 311 313
150 165 164 162 168 171 176 206 252 270 273 277 289 294 295 296 301 306 313 318 322 325 324 322 319 312 301 297 305 302 300 299 300 302 305 307 309 311
160 160 165 162 169 172 202 257 293 305 304 300 297 300 301 306 311 316 319 322 327 330 328 325 318 311 299 295 303 298 296 294 296 299 303 305 306 308
159 159 158 160 176 204 293 326 317 308 313 316 311 313 317 317 318 322 327 328 329 331 325 326 317 313 306 302 301 298 293 293 299 300 301 303 304 305
154 152 162 175 205 331 319 315 321 317 314 317 321 320 320 326 328 327 324 328 330 334 331 333 327 321 313 312 305 299 295 297 300 298 300 302 303 304
156 161 163 161 298 292 325 323 312 314 328 329 326 331 330 327 327 329 327 329 330 335 333 331 330 328 322 317 311 304 302 303 298 299 302 302 302 303
151 153 170 262 304 328 321 325 333 333 337 335 331 326 327 329 327 325 328 330 328 334 326 324 329 328 324 321 319 318 319 301 296 303 301 302 303 304
153 176 257 318 318 318 326 334 333 331 333 328 325 330 329 327 327 325 325 322 320 328 326 319 329 324 324 324 323 322 323 305 302 301 304 305 305 304
159 211 294 299 314 331 333 340 334 334 333 333 335 331 326 325 321 319 322 321 319 324 326 318 326 323 324 325 328 328 329 301 303 311 309 309 307 303
196 257 287 325 334 334 338 332 332 332 336 336 332 329 325 325 324 320 324 322 322 326 328 321 321 322 323 325 329 330 318 310 322 322 315 310 308 305
245 277 338 328 333 325 331 332 330 333 336 336 335 335 330 330 328 324 323 321 321 319 325 319 316 325 324 322 320 317 318 324 327 326 326 322 317 309
327 340 335 329 321 324 327 336 335 328 331 332 334 334 332 330 326 324 323 318 316 310 320 313 310 314 310 311 311 314 319 322 324 325 327 324 322 312
347 327 319 311 320 335 335 329 326 328 331 332 333 334 332 331 329 325 320 315 311 308 313 309 303 308 308 306 306 312 316 317 323 322 322 320 319 316
309 304 316 330 331 336 337 332 332 333 333 333 334 333 331 327 323 320 316 314 309 308 308 305 303 305 302 301 303 306 313 316 317 318 321 319 321 321
319 329 326 328 336 338 334 332 332 333 334 333 331 328 325 323 323 321 319 319 315 318 320 317 309 304 302 300 302 302 310 306 314 318 320 317 319 322
321 325 322 327 329 329 331 333 331 332 333 331 328 327 325 323 323 322 321 321 319 322 324 329 325 316 307 303 302 306 311 308 315 320 322 319 319 323
321 320 324 328 332 332 333 334 334 333 331 329 328 327 324 323 321 322 323 322 321 323 324 328 329 325 322 321 320 317 316 317 320 316 316 315 318 325
315 325 326 329 331 333 332 332 332 331 328 328 327 327 324 321 322 323 324 323 322 323 324 328 331 330 324 318 323 330 317 320 320 320 322 319 318 325
325 322 324 327 330 331 331 329 328 327 327 328 327 326 324 322 322 323 323 323 323 323 322 328 332 330 324 318 316 323 335 327 324 319 323 319 321 325
319 321 324 327 329 330 327 326 327 327 326 326 326 325 325 322 322 323 322 322 321 322 321 326 331 327 323 318 315 321 324 328 325 321 320 312 315 323
320 324 327 327 327 326 326 325 326 326 325 325 325 324 323 321 321 321 321 321 321 320 320 323 327 325 324 320 318 320 324 328 329 322 318 313 301 289
320 322 324 325 325 324 324 325 325 324 324 323 323 323 321 319 320 320 320 321 321 320 323 322 324 323 323 322 321 323 324 327 330 328 327 332 332 306